Alva, OK

12:32 AM CDT on May 28, 2017 (GMT -0500)
Alva Regional

Weather History for KAVK - September, 2013

Change the Weather History Date:

Thursday, September 12, 2013

  Actual Average Record
Temperature  
Mean Temperature 79 °F -  
Max Temperature 87 °F 89 °F 104 °F (2011)
Min Temperature 71 °F 62 °F 46 °F (1950)
Cooling Degree Days 14    
Growing Degree Days 29 (Base 50)    
Moisture  
Dew Point 65 °F    
Average Humidity 67    
Maximum Humidity 88    
Minimum Humidity 46    
Precipitation  
Precipitation 0.00 in - - ()
Sea Level Pressure  
Sea Level Pressure 30.12 in    
Wind  
Wind Speed 10 mph (NE)    
Max Wind Speed 23 mph    
Max Gust Speed 29 mph    
Visibility 10 miles    
Events Rain    
Averages and records for this station are not official NWS values.
T = Trace of Precipitation, MM = Missing Value Source: NWS Daily Summary

Daily Weather History Graph

Daily Weather History Graph

Search for Another Location

Airport or City:

Trip Planner

Search our weather history database for the weather conditions in past years. The results will help you decide how hot, cold, wet, or windy it might be!

Date:

Astronomy

Sep. 12, 2013 Rise Set
Actual Time 7:14 AM CDT 7:46 PM CDT
Civil Twilight 6:48 AM CDT 8:12 PM CDT
Nautical Twilight 6:18 AM CDT 8:42 PM CDT
Astronomical Twilight 5:46 AM CDT 9:14 PM CDT
Moon 2:33 PM CDT (9/12) No Moon Set
Length of Visible Light 13h 23m
Length of Day
12h 31m
Waxing Crescent, 50% of the Moon is Illuminated
Sep 12
Waxing Crescent
Sep 12
First Quarter
Sep 19
Full
Sep 26
Last Quarter
Oct 4
New

Hourly Weather History & Observations

Time (CDT) Temp. Heat Index Dew Point Humidity Pressure Visibility Wind Dir Wind Speed Gust Speed Precip Events Conditions
12:10 AM 75.2 °F - 59.0 °F 57% 30.09 in 10.0 mi South 5.8 mph - N/A   Scattered Clouds
12:30 AM 75.2 °F - 59.0 °F 57% 30.09 in 10.0 mi SSE 6.9 mph - N/A   Overcast
12:50 AM 77.0 °F - 59.0 °F 54% 30.09 in 10.0 mi South 6.9 mph - N/A   Overcast
1:10 AM 77.0 °F - 59.0 °F 54% 30.09 in 10.0 mi South 5.8 mph - N/A   Overcast
1:30 AM 78.8 °F - 59.0 °F 51% 30.10 in 3.0 mi NW 8.1 mph 17.3 mph N/A   Haze
1:50 AM 78.8 °F - 59.0 °F 51% 30.10 in 10.0 mi NNW 3.5 mph - N/A   Overcast
2:10 AM 77.0 °F - 62.6 °F 61% 30.10 in 10.0 mi NNE 10.4 mph - N/A   Overcast
2:30 AM 77.0 °F - 64.4 °F 65% 30.10 in 10.0 mi NNE 9.2 mph - N/A   Scattered Clouds
2:50 AM 75.2 °F - 66.2 °F 73% 30.10 in 10.0 mi NNE 10.4 mph - N/A   Partly Cloudy
3:15 AM 75.2 °F - 66.2 °F 73% 30.10 in 10.0 mi NNE 12.7 mph - N/A   Scattered Clouds
3:30 AM 73.4 °F - 66.2 °F 78% 30.10 in 10.0 mi NNE 10.4 mph - N/A   Mostly Cloudy
3:50 AM 73.4 °F - 66.2 °F 78% 30.10 in 10.0 mi NNE 10.4 mph - N/A   Mostly Cloudy
4:10 AM 73.4 °F - 66.2 °F 78% 30.10 in 10.0 mi NE 10.4 mph - N/A   Scattered Clouds
4:30 AM 73.4 °F - 66.2 °F 78% 30.10 in 10.0 mi NE 10.4 mph - N/A   Mostly Cloudy
4:50 AM 73.4 °F - 66.2 °F 78% 30.10 in 10.0 mi NNE 11.5 mph - N/A   Overcast
5:10 AM 73.4 °F - 66.2 °F 78% 30.10 in 10.0 mi NE 11.5 mph - N/A   Mostly Cloudy
5:30 AM 71.6 °F - 66.2 °F 83% 30.10 in 10.0 mi NE 10.4 mph - N/A   Mostly Cloudy
5:50 AM 71.6 °F - 66.2 °F 83% 30.10 in 10.0 mi NE 10.4 mph - N/A   Scattered Clouds
6:10 AM 71.6 °F - 66.2 °F 83% 30.11 in 10.0 mi NE 10.4 mph - N/A   Mostly Cloudy
6:35 AM 71.6 °F - 66.2 °F 83% 30.11 in 10.0 mi NE 10.4 mph - N/A   Scattered Clouds
6:50 AM 71.6 °F - 66.2 °F 83% 30.11 in 10.0 mi NE 9.2 mph - N/A   Scattered Clouds
7:10 AM 71.6 °F - 66.2 °F 83% 30.12 in 10.0 mi NE 8.1 mph - N/A   Scattered Clouds
7:30 AM 71.6 °F - 66.2 °F 83% 30.13 in 10.0 mi NE 8.1 mph - N/A   Partly Cloudy
7:50 AM 71.6 °F - 66.2 °F 83% 30.13 in 10.0 mi NE 8.1 mph - N/A   Clear
8:10 AM 71.6 °F - 66.2 °F 83% 30.14 in 10.0 mi NE 6.9 mph - N/A   Clear
8:30 AM 71.6 °F - 68.0 °F 88% 30.14 in 10.0 mi NE 8.1 mph - N/A   Clear
8:50 AM 73.4 °F - 68.0 °F 83% 30.15 in 10.0 mi ENE 9.2 mph - N/A   Clear
9:10 AM 73.4 °F - 68.0 °F 83% 30.15 in 10.0 mi ENE 8.1 mph - N/A   Clear
9:30 AM 73.4 °F - 68.0 °F 83% 30.15 in 10.0 mi ENE 8.1 mph - N/A   Clear
9:50 AM 75.2 °F - 66.2 °F 73% 30.15 in 10.0 mi ENE 10.4 mph - N/A   Clear
10:15 AM 77.0 °F - 66.2 °F 69% 30.16 in 10.0 mi NE 9.2 mph - N/A   Clear
10:30 AM 77.0 °F - 66.2 °F 69% 30.16 in 10.0 mi ENE 8.1 mph - N/A   Clear
10:50 AM 77.0 °F - 66.2 °F 69% 30.16 in 10.0 mi ENE 11.5 mph - N/A   Clear
11:10 AM 78.8 °F - 66.2 °F 65% 30.17 in 10.0 mi ENE 9.2 mph - N/A   Clear
11:30 AM 80.6 °F 82.7 °F 66.2 °F 61% 30.17 in 10.0 mi ENE 10.4 mph - N/A   Clear
11:50 AM 80.6 °F 82.7 °F 66.2 °F 61% 30.16 in 10.0 mi ENE 10.4 mph - N/A   Clear
12:15 PM 82.4 °F 84.6 °F 66.2 °F 58% 30.16 in 10.0 mi ENE 10.4 mph - N/A   Clear
12:30 PM 82.4 °F 84.6 °F 66.2 °F 58% 30.15 in 10.0 mi East 10.4 mph - N/A   Clear
12:50 PM 82.4 °F 84.6 °F 66.2 °F 58% 30.15 in 10.0 mi ENE 11.5 mph 20.7 mph N/A   Clear
1:10 PM 84.2 °F 85.6 °F 64.4 °F 51% 30.14 in 10.0 mi ENE 9.2 mph - N/A   Clear
1:30 PM 84.2 °F 85.6 °F 64.4 °F 51% 30.14 in 10.0 mi NE 8.1 mph - N/A   Clear
1:50 PM 84.2 °F 85.6 °F 64.4 °F 51% 30.13 in 10.0 mi ENE 6.9 mph - N/A   Clear
2:10 PM 86.0 °F 87.3 °F 64.4 °F 48% 30.12 in 10.0 mi NE 9.2 mph - N/A   Clear
2:30 PM 86.0 °F 87.3 °F 64.4 °F 48% 30.11 in 10.0 mi NE 9.2 mph - N/A Rain Light Rain
2:50 PM 86.0 °F 87.3 °F 64.4 °F 48% 30.11 in 10.0 mi NE 6.9 mph - N/A   Clear
3:10 PM 87.8 °F 89.4 °F 64.4 °F 46% 30.10 in 10.0 mi NE 12.7 mph 20.7 mph N/A   Clear
3:30 PM 87.8 °F 89.4 °F 64.4 °F 46% 30.09 in 7.0 mi NE 16.1 mph 23.0 mph N/A   Clear
3:50 PM 86.0 °F 87.3 °F 64.4 °F 48% 30.09 in 10.0 mi NE 18.4 mph 23.0 mph N/A   Clear
4:10 PM 86.0 °F 87.3 °F 64.4 °F 48% 30.08 in 10.0 mi NE 15.0 mph - N/A   Clear
4:30 PM 87.8 °F 89.4 °F 64.4 °F 46% 30.08 in 9.0 mi NE 18.4 mph 25.3 mph N/A   Clear
4:50 PM 84.2 °F 85.6 °F 64.4 °F 51% 30.08 in 10.0 mi NNE 23.0 mph 28.8 mph N/A   Clear
5:15 PM 80.6 °F 82.7 °F 66.2 °F 61% 30.08 in 10.0 mi NE 17.3 mph 24.2 mph N/A   Clear
5:30 PM 80.6 °F 82.7 °F 66.2 °F 61% 30.08 in 10.0 mi NE 18.4 mph 24.2 mph N/A   Clear
5:50 PM 80.6 °F 82.7 °F 66.2 °F 61% 30.08 in 10.0 mi NE 17.3 mph 21.9 mph N/A   Clear
6:10 PM 80.6 °F 82.7 °F 66.2 °F 61% 30.08 in 10.0 mi NE 18.4 mph 24.2 mph N/A   Clear
6:30 PM 80.6 °F 82.7 °F 66.2 °F 61% 30.08 in 10.0 mi NE 17.3 mph - N/A   Clear
6:50 PM 78.8 °F - 66.2 °F 65% 30.09 in 10.0 mi NE 16.1 mph - N/A   Clear
7:10 PM 78.8 °F - 66.2 °F 65% 30.10 in 10.0 mi NE 15.0 mph 20.7 mph N/A   Clear
7:30 PM 77.0 °F - 66.2 °F 69% 30.10 in 10.0 mi NE 13.8 mph 19.6 mph N/A   Clear
7:50 PM 77.0 °F - 66.2 °F 69% 30.10 in 10.0 mi NE 13.8 mph - N/A   Clear
8:10 PM 77.0 °F - 66.2 °F 69% 30.11 in 10.0 mi NE 11.5 mph - N/A   Scattered Clouds
8:30 PM 77.0 °F - 68.0 °F 74% 30.11 in 10.0 mi ENE 12.7 mph - N/A   Mostly Cloudy
8:50 PM 75.2 °F - 68.0 °F 78% 30.12 in 10.0 mi ENE 8.1 mph - N/A   Scattered Clouds
9:10 PM 75.2 °F - 68.0 °F 78% 30.12 in 10.0 mi ENE 9.2 mph - N/A   Mostly Cloudy
9:30 PM 75.2 °F - 66.2 °F 73% 30.12 in 10.0 mi ENE 9.2 mph - N/A   Mostly Cloudy
9:50 PM 75.2 °F - 68.0 °F 78% 30.13 in 10.0 mi NE 6.9 mph - N/A   Overcast
10:10 PM 75.2 °F - 66.2 °F 73% 30.12 in 10.0 mi NE 9.2 mph - N/A   Overcast
10:30 PM 75.2 °F - 66.2 °F 73% 30.13 in 10.0 mi NE 8.1 mph - N/A   Mostly Cloudy
10:50 PM 73.4 °F - 66.2 °F 78% 30.13 in 10.0 mi NE 8.1 mph - N/A   Mostly Cloudy
11:10 PM 73.4 °F - 66.2 °F 78% 30.12 in 10.0 mi NE 8.1 mph - N/A   Mostly Cloudy
11:30 PM 73.4 °F - 66.2 °F 78% 30.12 in 10.0 mi NE 8.1 mph - N/A   Mostly Cloudy
11:50 PM 73.4 °F - 66.2 °F 78% 30.12 in 10.0 mi NE 9.2 mph - N/A   Overcast